• In Österreich
  • Länderverzeichnis
  • Für 7 Tage
  • Wassertemperatur
  • Satellitenkarten
  • Wetterkarte
  • News
  • Widgets
  • user-avatar
    Anmelden

    Stündliche Wetter Solhan

    Heute, 17 August, Freitag

    Zeit Temperatur Niederschläge Wind Luftdruck Luftfeuchtigkeit
    00:00 +23°C° 0 mm 1 m/S 634 mmHg 26%
    01:00 +22°C° 0 mm 1 m/S 634 mmHg 27%
    02:00 +22°C° 0 mm 1 m/S 634 mmHg 29%
    03:00 +21°C° 0 mm 1 m/S 633 mmHg 31%
    04:00 +21°C° 0 mm 1 m/S 634 mmHg 33%
    05:00 +21°C° 0 mm 1 m/S 634 mmHg 35%
    06:00 +21°C° 0 mm 1 m/S 634 mmHg 38%
    07:00 +24°C° 0 mm 1 m/S 635 mmHg 32%
    08:00 +27°C° 0 mm 1 m/S 636 mmHg 26%
    09:00 +30°C° 0 mm 1 m/S 636 mmHg 21%
    10:00 +31°C° 0 mm 1 m/S 637 mmHg 18%
    11:00 +32°C° 0 mm 2 m/S 637 mmHg 15%
    12:00 +35°C° 0 mm 2 m/S 637 mmHg 12%
    13:00 +36°C° 0 mm 3 m/S 637 mmHg 12%
    14:00 +36°C° 0 mm 4 m/S 636 mmHg 11%
    15:00 +37°C° 0 mm 4 m/S 636 mmHg 10%
    16:00 +36°C° 0 mm 4 m/S 636 mmHg 10%
    17:00 +35°C° 0 mm 4 m/S 635 mmHg 11%
    18:00 +35°C° 0 mm 4 m/S 635 mmHg 12%
    19:00 +32°C° 0 mm 4 m/S 634 mmHg 14%
    20:00 +28°C° 0 mm 3 m/S 633 mmHg 16%
    21:00 +25°C° 0 mm 2 m/S 633 mmHg 19%
    22:00 +25°C° 0 mm 2 m/S 633 mmHg 22%
    23:00 +24°C° 0 mm 2 m/S 633 mmHg 25%

    Morgen, 18 August, Samstag

    Zeit Temperatur Niederschläge Wind Luftdruck Luftfeuchtigkeit
    00:00 +23°C° 0 mm 2 m/S 633 mmHg 28%
    01:00 +21°C° 0 mm 2 m/S 632 mmHg 32%
    02:00 +21°C° 0 mm 2 m/S 632 mmHg 37%
    03:00 +20°C° 0 mm 2 m/S 632 mmHg 42%
    04:00 +20°C° 0 mm 2 m/S 632 mmHg 45%
    05:00 +20°C° 0 mm 2 m/S 632 mmHg 49%
    06:00 +19°C° 0 mm 2 m/S 632 mmHg 52%
    07:00 +23°C° 0 mm 2 m/S 633 mmHg 46%
    08:00 +25°C° 0 mm 2 m/S 633 mmHg 39%
    09:00 +28°C° 0 mm 1 m/S 634 mmHg 33%
    10:00 +30°C° 0 mm 1 m/S 634 mmHg 27%
    11:00 +31°C° 0 mm 1 m/S 634 mmHg 22%
    12:00 +33°C° 0 mm 1 m/S 635 mmHg 16%
    13:00 +35°C° 0 mm 2 m/S 634 mmHg 14%
    14:00 +35°C° 0 mm 3 m/S 634 mmHg 13%
    15:00 +36°C° 0 mm 4 m/S 634 mmHg 11%
    16:00 +35°C° 0 mm 4 m/S 633 mmHg 11%
    17:00 +35°C° 0 mm 4 m/S 633 mmHg 12%
    18:00 +34°C° 0 mm 5 m/S 633 mmHg 12%
    19:00 +30°C° 0 mm 4 m/S 632 mmHg 15%
    20:00 +28°C° 0 mm 3 m/S 632 mmHg 18%
    21:00 +25°C° 0 mm 2 m/S 632 mmHg 21%
    22:00 +24°C° 0 mm 2 m/S 632 mmHg 26%
    23:00 +23°C° 0 mm 2 m/S 632 mmHg 30%

    übermorgen, 19 August, Sonntag

    Zeit Temperatur Niederschläge Wind Luftdruck Luftfeuchtigkeit
    00:00 +21°C° 0 mm 2 m/S 631 mmHg 34%
    01:00 +21°C° 0 mm 2 m/S 631 mmHg 39%
    02:00 +20°C° 0 mm 2 m/S 631 mmHg 44%
    03:00 +20°C° 0 mm 2 m/S 631 mmHg 49%
    04:00 +19°C° 0 mm 2 m/S 631 mmHg 52%
    05:00 +19°C° 0 mm 2 m/S 631 mmHg 56%
    06:00 +18°C° 0 mm 2 m/S 631 mmHg 59%
    07:00 +21°C° 0 mm 2 m/S 632 mmHg 52%
    08:00 +24°C° 0 mm 2 m/S 632 mmHg 45%
    09:00 +26°C° 0 mm 2 m/S 633 mmHg 39%
    10:00 +28°C° 0 mm 2 m/S 633 mmHg 32%
    11:00 +30°C° 0 mm 2 m/S 634 mmHg 26%
    12:00 +32°C° 0 mm 2 m/S 634 mmHg 19%
    13:00 +33°C° 0 mm 3 m/S 634 mmHg 17%
    14:00 +34°C° 0 mm 4 m/S 633 mmHg 15%
    15:00 +34°C° 0 mm 5 m/S 633 mmHg 13%
    16:00 +34°C° 0 mm 5 m/S 633 mmHg 13%
    17:00 +33°C° 0 mm 5 m/S 633 mmHg 14%
    18:00 +32°C° 0 mm 4 m/S 633 mmHg 14%
    19:00 +29°C° 0 mm 4 m/S 633 mmHg 17%
    20:00 +27°C° 0 mm 3 m/S 632 mmHg 20%
    21:00 +24°C° 0 mm 2 m/S 632 mmHg 23%
    22:00 +23°C° 0 mm 2 m/S 632 mmHg 26%
    23:00 +23°C° 0 mm 2 m/S 632 mmHg 29%

    20 August, Montag

    Zeit Temperatur Niederschläge Wind Luftdruck Luftfeuchtigkeit
    00:00 +22°C° 0 mm 1 m/S 632 mmHg 32%
    01:00 +21°C° 0 mm 1 m/S 632 mmHg 36%
    02:00 +20°C° 0 mm 2 m/S 632 mmHg 40%
    03:00 +19°C° 0 mm 2 m/S 632 mmHg 44%
    04:00 +19°C° 0 mm 2 m/S 632 mmHg 48%
    05:00 +18°C° 0 mm 2 m/S 632 mmHg 52%
    06:00 +18°C° 0 mm 2 m/S 632 mmHg 55%
    07:00 +21°C° 0 mm 2 m/S 633 mmHg 47%
    08:00 +24°C° 0 mm 1 m/S 634 mmHg 40%
    09:00 +27°C° 0 mm 1 m/S 635 mmHg 32%
    10:00 +28°C° 0 mm 2 m/S 635 mmHg 27%
    11:00 +30°C° 0 mm 3 m/S 635 mmHg 22%
    12:00 +33°C° 0 mm 4 m/S 636 mmHg 16%
    13:00 +33°C° 0 mm 5 m/S 636 mmHg 15%
    14:00 +34°C° 0 mm 5 m/S 635 mmHg 15%
    15:00 +35°C° 0 mm 6 m/S 635 mmHg 14%
    16:00 +34°C° 0 mm 5 m/S 635 mmHg 15%
    17:00 +33°C° 0 mm 5 m/S 635 mmHg 16%
    18:00 +32°C° 0 mm 5 m/S 635 mmHg 17%
    19:00 +29°C° 0 mm 4 m/S 635 mmHg 20%
    20:00 +26°C° 0 mm 2 m/S 634 mmHg 24%
    21:00 +24°C° 0 mm 1 m/S 634 mmHg 27%
    22:00 +23°C° 0 mm 1 m/S 634 mmHg 29%
    23:00 +23°C° 0 mm 1 m/S 634 mmHg 31%

    21 August, Dienstag

    Zeit Temperatur Niederschläge Wind Luftdruck Luftfeuchtigkeit
    00:00 +22°C° 0 mm 1 m/S 634 mmHg 33%
    01:00 +21°C° 0 mm 1 m/S 634 mmHg 36%
    02:00 +21°C° 0 mm 1 m/S 634 mmHg 40%
    03:00 +20°C° 0 mm 1 m/S 634 mmHg 43%
    04:00 +20°C° 0 mm 1 m/S 634 mmHg 46%
    05:00 +19°C° 0 mm 2 m/S 634 mmHg 49%
    06:00 +18°C° 0 mm 2 m/S 634 mmHg 52%
    07:00 +22°C° 0 mm 1 m/S 635 mmHg 44%
    08:00 +25°C° 0 mm 1 m/S 636 mmHg 37%
    09:00 +28°C° 0 mm 1 m/S 637 mmHg 30%
    10:00 +29°C° 0 mm 1 m/S 637 mmHg 26%
    11:00 +31°C° 0 mm 2 m/S 637 mmHg 22%
    12:00 +32°C° 0 mm 2 m/S 637 mmHg 18%
    13:00 +34°C° 0 mm 3 m/S 637 mmHg 17%
    14:00 +34°C° 0 mm 3 m/S 637 mmHg 16%
    15:00 +35°C° 0 mm 4 m/S 637 mmHg 14%
    16:00 +34°C° 0 mm 4 m/S 637 mmHg 15%
    17:00 +34°C° 0 mm 4 m/S 636 mmHg 15%
    18:00 +33°C° 0 mm 4 m/S 636 mmHg 16%
    19:00 +30°C° 0 mm 3 m/S 636 mmHg 19%
    20:00 +27°C° 0 mm 2 m/S 636 mmHg 23%
    21:00 +25°C° 0 mm 2 m/S 635 mmHg 26%
    22:00 +24°C° 0 mm 2 m/S 635 mmHg 29%
    23:00 +23°C° 0 mm 2 m/S 635 mmHg 33%

    22 August, Mittwoch

    Zeit Temperatur Niederschläge Wind Luftdruck Luftfeuchtigkeit
    00:00 +23°C° 0 mm 2 m/S 635 mmHg 36%
    01:00 +21°C° 0 mm 2 m/S 635 mmHg 41%
    02:00 +20°C° 0 mm 2 m/S 635 mmHg 46%
    03:00 +20°C° 0 mm 2 m/S 634 mmHg 51%
    04:00 +19°C° 0 mm 2 m/S 635 mmHg 55%
    05:00 +19°C° 0 mm 2 m/S 635 mmHg 59%
    06:00 +19°C° 0 mm 2 m/S 635 mmHg 63%
    07:00 +21°C° 0 mm 2 m/S 635 mmHg 55%
    08:00 +24°C° 0 mm 2 m/S 636 mmHg 47%
    09:00 +27°C° 0 mm 2 m/S 637 mmHg 39%
    10:00 +28°C° 0 mm 2 m/S 637 mmHg 33%
    11:00 +30°C° 0 mm 1 m/S 637 mmHg 27%
    12:00 +32°C° 0 mm 1 m/S 637 mmHg 21%
    13:00 +33°C° 0 mm 1 m/S 637 mmHg 19%
    14:00 +34°C° 0 mm 1 m/S 637 mmHg 17%
    15:00 +34°C° 0 mm 1 m/S 637 mmHg 15%
    16:00 +35°C° 0 mm 2 m/S 636 mmHg 15%
    17:00 +34°C° 0 mm 2 m/S 636 mmHg 15%
    18:00 +34°C° 0 mm 2 m/S 636 mmHg 16%
    19:00 +30°C° 0 mm 2 m/S 636 mmHg 20%
    20:00 +28°C° 0 mm 2 m/S 635 mmHg 24%
    21:00 +25°C° 0 mm 2 m/S 635 mmHg 28%
    22:00 +25°C° 0 mm 2 m/S 635 mmHg 32%
    23:00 +24°C° 0 mm 2 m/S 635 mmHg 36%
    Mehr zeigen